Year,Month,Day,Hour,Minute,Value (Times are PST for temperature in C)
2014,12,08,10,04,11.00
2014,12,08,10,05,11.00
2014,12,08,10,06,11.00
2014,12,08,10,07,11.00
2014,12,08,10,08,11.00
2014,12,08,10,09,11.00
2014,12,08,10,10,11.00
2014,12,08,10,11,11.00
2014,12,08,10,12,11.00
2014,12,08,10,13,11.00
2014,12,08,10,14,11.00
2014,12,08,10,15,11.00
2014,12,08,10,16,11.00
2014,12,08,10,17,10.90
2014,12,08,10,18,10.90
2014,12,08,10,19,10.90
2014,12,08,10,20,10.90
2014,12,08,10,21,10.90
2014,12,08,10,22,10.80
2014,12,08,10,23,10.80
2014,12,08,10,24,10.80
2014,12,08,10,25,10.80
2014,12,08,10,26,10.80
2014,12,08,10,27,10.80
2014,12,08,10,28,10.80
2014,12,08,10,29,10.80
2014,12,08,10,30,10.80
2014,12,08,10,31,10.80
2014,12,08,10,32,10.80
2014,12,08,10,33,10.80
2014,12,08,10,34,10.80
2014,12,08,10,35,10.80
2014,12,08,10,36,10.80
2014,12,08,10,37,10.80
2014,12,08,10,38,10.80
2014,12,08,10,39,10.80
2014,12,08,10,40,10.80
2014,12,08,10,41,10.80
2014,12,08,10,42,10.80
2014,12,08,10,43,10.80
2014,12,08,10,44,10.80
2014,12,08,10,45,10.80
2014,12,08,10,46,10.80
2014,12,08,10,47,10.80
2014,12,08,10,48,10.90
2014,12,08,10,49,10.90
2014,12,08,10,50,10.90
2014,12,08,10,51,10.90
2014,12,08,10,52,10.90
2014,12,08,10,53,10.90
2014,12,08,10,54,10.90
2014,12,08,10,55,10.90
2014,12,08,10,56,10.90
2014,12,08,10,57,10.90
2014,12,08,10,58,10.90
2014,12,08,10,59,10.90
2014,12,08,11,00,10.80
2014,12,08,11,01,10.80
2014,12,08,11,02,10.80
2014,12,08,11,03,10.70
2014,12,08,11,04,10.70
2014,12,08,11,05,10.70
2014,12,08,11,06,10.60
2014,12,08,11,07,10.60
2014,12,08,11,08,10.50
2014,12,08,11,09,10.50
2014,12,08,11,10,10.50
2014,12,08,11,11,10.40
2014,12,08,11,12,10.40
2014,12,08,11,13,10.40
2014,12,08,11,14,10.40
2014,12,08,11,15,10.40
2014,12,08,11,16,10.40
2014,12,08,11,17,10.40
2014,12,08,11,18,10.40
2014,12,08,11,19,10.40
2014,12,08,11,20,10.40
2014,12,08,11,21,10.40
2014,12,08,11,22,10.40
2014,12,08,11,23,10.40
2014,12,08,11,24,10.30
2014,12,08,11,25,10.30
2014,12,08,11,26,10.30
2014,12,08,11,27,10.30
2014,12,08,11,28,10.30
2014,12,08,11,29,10.30
2014,12,08,11,30,10.30
2014,12,08,11,31,10.30
2014,12,08,11,32,10.30
2014,12,08,11,33,10.30
2014,12,08,11,34,10.30
2014,12,08,11,35,10.30
2014,12,08,11,36,10.30
2014,12,08,11,37,10.30
2014,12,08,11,38,10.30
2014,12,08,11,39,10.30
2014,12,08,11,40,10.30
2014,12,08,11,41,10.30
2014,12,08,11,42,10.30
2014,12,08,11,43,10.30
2014,12,08,11,44,10.30
2014,12,08,11,45,10.30
2014,12,08,11,46,10.30
2014,12,08,11,47,10.30
2014,12,08,11,48,10.30
2014,12,08,11,49,10.30
2014,12,08,11,50,10.30
2014,12,08,11,51,10.40
2014,12,08,11,52,10.40
2014,12,08,11,53,10.40
2014,12,08,11,54,10.40
2014,12,08,11,55,10.40
2014,12,08,11,56,10.40
2014,12,08,11,57,10.40
2014,12,08,11,58,10.40
2014,12,08,11,59,10.40
2014,12,08,12,00,10.50
2014,12,08,12,01,10.50
2014,12,08,12,02,10.50
2014,12,08,12,03,10.50
2014,12,08,12,04,10.50
2014,12,08,12,05,10.60
2014,12,08,12,06,10.60
2014,12,08,12,07,10.60
2014,12,08,12,08,10.60
2014,12,08,12,09,10.60
2014,12,08,12,10,10.60
2014,12,08,12,11,10.60
2014,12,08,12,12,10.60
2014,12,08,12,13,10.60
2014,12,08,12,14,10.70
2014,12,08,12,15,10.70
2014,12,08,12,16,10.70
2014,12,08,12,17,10.70
2014,12,08,12,18,10.70
2014,12,08,12,19,10.70
2014,12,08,12,20,10.80
2014,12,08,12,21,10.80
2014,12,08,12,22,10.80
2014,12,08,12,23,10.80
2014,12,08,12,24,10.80
2014,12,08,12,25,10.80
2014,12,08,12,26,10.80
2014,12,08,12,27,10.80
2014,12,08,12,28,10.80
2014,12,08,12,29,10.80
2014,12,08,12,30,10.80
2014,12,08,12,31,10.80
2014,12,08,12,32,10.80
2014,12,08,12,33,10.80
2014,12,08,12,34,10.80
2014,12,08,12,35,10.90
2014,12,08,12,36,10.90
2014,12,08,12,37,10.90
2014,12,08,12,38,10.90
2014,12,08,12,39,11.00
2014,12,08,12,40,11.00
2014,12,08,12,41,11.10
2014,12,08,12,42,11.10
2014,12,08,12,43,11.20
2014,12,08,12,44,11.20
2014,12,08,12,45,11.20
2014,12,08,12,46,11.30
2014,12,08,12,47,11.30
2014,12,08,12,48,11.30
2014,12,08,12,49,11.30
2014,12,08,12,50,11.20
2014,12,08,12,51,11.20
2014,12,08,12,52,11.20
2014,12,08,12,53,11.20
2014,12,08,12,54,11.10
2014,12,08,12,55,11.10
2014,12,08,12,56,11.00
2014,12,08,12,57,10.90
2014,12,08,12,58,10.90
2014,12,08,12,59,10.80
2014,12,08,13,00,10.80
2014,12,08,13,01,10.80
2014,12,08,13,02,10.70
2014,12,08,13,03,10.60
2014,12,08,13,04,10.60
2014,12,08,13,05,10.50
2014,12,08,13,06,10.50
2014,12,08,13,07,10.40
2014,12,08,13,08,10.30
2014,12,08,13,09,10.30
2014,12,08,13,10,10.30
2014,12,08,13,11,10.20
2014,12,08,13,12,10.20
2014,12,08,13,13,10.10
2014,12,08,13,14,10.10
2014,12,08,13,15,10.10
2014,12,08,13,16,10.00
2014,12,08,13,17,10.00
2014,12,08,13,18,10.00
2014,12,08,13,19,9.90
2014,12,08,13,20,9.90
2014,12,08,13,21,9.90
2014,12,08,13,22,9.80
2014,12,08,13,23,9.80
2014,12,08,13,24,9.80
2014,12,08,13,25,9.80
2014,12,08,13,26,9.80
2014,12,08,13,27,9.80
2014,12,08,13,28,9.70
2014,12,08,13,29,9.70
2014,12,08,13,30,9.70
2014,12,08,13,31,9.70
2014,12,08,13,32,9.70
2014,12,08,13,33,9.70
2014,12,08,13,34,9.70
2014,12,08,13,35,9.70
2014,12,08,13,36,9.60
2014,12,08,13,37,9.60
2014,12,08,13,38,9.60
2014,12,08,13,39,9.60
2014,12,08,13,40,9.60
2014,12,08,13,41,9.60
2014,12,08,13,42,9.60
2014,12,08,13,43,9.60
2014,12,08,13,44,9.60
2014,12,08,13,45,9.60
2014,12,08,13,46,9.60
2014,12,08,13,47,9.50
2014,12,08,13,48,9.50
2014,12,08,13,49,9.50
2014,12,08,13,50,9.50
2014,12,08,13,51,9.50
2014,12,08,13,52,9.50
2014,12,08,13,53,9.50
2014,12,08,13,54,9.50
2014,12,08,13,55,9.50
2014,12,08,13,56,9.50
2014,12,08,13,57,9.50
2014,12,08,13,58,9.50
2014,12,08,13,59,9.50
2014,12,08,14,00,9.50
2014,12,08,14,01,9.50
2014,12,08,14,02,9.50
2014,12,08,14,03,9.40
2014,12,08,14,04,9.40
2014,12,08,14,05,9.40
2014,12,08,14,06,9.40
2014,12,08,14,07,9.40
2014,12,08,14,08,9.40
2014,12,08,14,09,9.40
2014,12,08,14,10,9.40
2014,12,08,14,11,9.40
2014,12,08,14,12,9.40
2014,12,08,14,13,9.40
2014,12,08,14,14,9.40
2014,12,08,14,15,9.50
2014,12,08,14,16,9.50
2014,12,08,14,17,9.50
2014,12,08,14,18,9.50
2014,12,08,14,19,9.50
2014,12,08,14,20,9.40
2014,12,08,14,21,9.40
2014,12,08,14,22,9.40
2014,12,08,14,23,9.40
2014,12,08,14,24,9.40
2014,12,08,14,25,9.40
2014,12,08,14,26,9.40
2014,12,08,14,27,9.40
2014,12,08,14,28,9.40
2014,12,08,14,29,9.40
2014,12,08,14,30,9.40
2014,12,08,14,31,9.40
2014,12,08,14,32,9.40
2014,12,08,14,33,9.40
2014,12,08,14,34,9.40
2014,12,08,14,35,9.40
2014,12,08,14,36,9.40
2014,12,08,14,37,9.40
2014,12,08,14,38,9.40
2014,12,08,14,39,9.40
2014,12,08,14,40,9.40
2014,12,08,14,41,9.40
2014,12,08,14,42,9.40
2014,12,08,14,43,9.40
2014,12,08,14,44,9.40
2014,12,08,14,45,9.40
2014,12,08,14,46,9.40
2014,12,08,14,47,9.30
2014,12,08,14,48,9.30
2014,12,08,14,49,9.30
2014,12,08,14,50,9.30
2014,12,08,14,51,9.30
2014,12,08,14,52,9.30
2014,12,08,14,53,9.30
2014,12,08,14,54,9.30
2014,12,08,14,55,9.30
2014,12,08,14,56,9.30
2014,12,08,14,57,9.30
2014,12,08,14,58,9.30
2014,12,08,14,59,9.30
2014,12,08,15,00,9.30
2014,12,08,15,01,9.30
2014,12,08,15,02,9.30
2014,12,08,15,03,9.30
2014,12,08,15,04,9.30
2014,12,08,15,05,9.30
2014,12,08,15,06,9.30
2014,12,08,15,07,9.30
2014,12,08,15,08,9.30
2014,12,08,15,09,9.30
2014,12,08,15,10,9.30
2014,12,08,15,11,9.30
2014,12,08,15,12,9.30
2014,12,08,15,13,9.30
2014,12,08,15,14,9.30
2014,12,08,15,15,9.30
2014,12,08,15,16,9.30
2014,12,08,15,17,9.30
2014,12,08,15,18,9.30
2014,12,08,15,19,9.30
2014,12,08,15,20,9.30
2014,12,08,15,21,9.30
2014,12,08,15,22,9.30
2014,12,08,15,23,9.30
2014,12,08,15,24,9.30
2014,12,08,15,25,9.30
2014,12,08,15,26,9.30
2014,12,08,15,27,9.30
2014,12,08,15,28,9.30
2014,12,08,15,29,9.30
2014,12,08,15,30,9.30
2014,12,08,15,31,9.30
2014,12,08,15,32,9.30
2014,12,08,15,33,9.30
2014,12,08,15,34,9.30
2014,12,08,15,35,9.30
2014,12,08,15,36,9.30
2014,12,08,15,37,9.30
2014,12,08,15,38,9.30
2014,12,08,15,39,9.30
2014,12,08,15,40,9.30
2014,12,08,15,41,9.30
2014,12,08,15,42,9.30
2014,12,08,15,43,9.30
2014,12,08,15,44,9.30
2014,12,08,15,45,9.30
2014,12,08,15,46,9.30
2014,12,08,15,47,9.30
2014,12,08,15,48,9.30
2014,12,08,15,49,9.30
2014,12,08,15,50,9.30
2014,12,08,15,51,9.30
2014,12,08,15,52,9.30
2014,12,08,15,53,9.30
2014,12,08,15,54,9.30
2014,12,08,15,55,9.30
2014,12,08,15,56,9.30
2014,12,08,15,57,9.30
2014,12,08,15,58,9.30
2014,12,08,15,59,9.30
2014,12,08,16,00,9.30
2014,12,08,16,01,9.30
2014,12,08,16,02,9.30
2014,12,08,16,03,9.30
2014,12,08,16,04,9.30
2014,12,08,16,05,9.30
2014,12,08,16,06,9.30
2014,12,08,16,07,9.30
2014,12,08,16,08,9.30
2014,12,08,16,09,9.30
2014,12,08,16,10,9.30
2014,12,08,16,11,9.30
2014,12,08,16,12,9.30
2014,12,08,16,13,9.20
2014,12,08,16,14,9.20
2014,12,08,16,15,9.20
2014,12,08,16,16,9.20
2014,12,08,16,17,9.20
2014,12,08,16,18,9.20
2014,12,08,16,19,9.20
2014,12,08,16,20,9.20
2014,12,08,16,21,9.20
2014,12,08,16,22,9.20
2014,12,08,16,23,9.20
2014,12,08,16,24,9.20
2014,12,08,16,25,9.20
2014,12,08,16,26,9.20
2014,12,08,16,27,9.20
2014,12,08,16,28,9.20
2014,12,08,16,29,9.20
2014,12,08,16,30,9.20
2014,12,08,16,31,9.20
2014,12,08,16,32,9.20
2014,12,08,16,33,9.20
2014,12,08,16,34,9.20
2014,12,08,16,35,9.20
2014,12,08,16,36,9.20
2014,12,08,16,37,9.20
2014,12,08,16,38,9.20
2014,12,08,16,39,9.20
2014,12,08,16,40,9.20
2014,12,08,16,41,9.20
2014,12,08,16,42,9.20
2014,12,08,16,43,9.20
2014,12,08,16,44,9.20
2014,12,08,16,45,9.20
2014,12,08,16,46,9.20
2014,12,08,16,47,9.20
2014,12,08,16,48,9.20
2014,12,08,16,49,9.20
2014,12,08,16,50,9.20
2014,12,08,16,51,9.20
2014,12,08,16,52,9.20
2014,12,08,16,53,9.20
2014,12,08,16,54,9.20
2014,12,08,16,55,9.20
2014,12,08,16,56,9.20
2014,12,08,16,57,9.20
2014,12,08,16,58,9.20
2014,12,08,16,59,9.20
2014,12,08,17,00,9.20
2014,12,08,17,01,9.20
2014,12,08,17,02,9.20
2014,12,08,17,03,9.20
2014,12,08,17,04,9.20
2014,12,08,17,05,9.20
2014,12,08,17,06,9.20
2014,12,08,17,07,9.20
2014,12,08,17,08,9.20
2014,12,08,17,09,9.20
2014,12,08,17,10,9.20
2014,12,08,17,11,9.20
2014,12,08,17,12,9.20
2014,12,08,17,13,9.20
2014,12,08,17,14,9.20
2014,12,08,17,15,9.20
2014,12,08,17,16,9.20
2014,12,08,17,17,9.20
2014,12,08,17,18,9.20
2014,12,08,17,19,9.20
2014,12,08,17,20,9.20
2014,12,08,17,21,9.20
2014,12,08,17,22,9.20
2014,12,08,17,23,9.20
2014,12,08,17,24,9.20
2014,12,08,17,25,9.20
2014,12,08,17,26,9.20
2014,12,08,17,27,9.20
2014,12,08,17,28,9.20
2014,12,08,17,29,9.20
2014,12,08,17,30,9.20
2014,12,08,17,31,9.20
2014,12,08,17,32,9.20
2014,12,08,17,33,9.20
2014,12,08,17,34,9.20
2014,12,08,17,35,9.20
2014,12,08,17,36,9.20
2014,12,08,17,37,9.20
2014,12,08,17,38,9.20
2014,12,08,17,39,9.20
2014,12,08,17,40,9.20
2014,12,08,17,41,9.20
2014,12,08,17,42,9.20
2014,12,08,17,43,9.20
2014,12,08,17,44,9.20
2014,12,08,17,45,9.20
2014,12,08,17,46,9.20
2014,12,08,17,47,9.20
2014,12,08,17,48,9.20
2014,12,08,17,49,9.20
2014,12,08,17,50,9.20
2014,12,08,17,51,9.20
2014,12,08,17,52,9.20
2014,12,08,17,53,9.20
2014,12,08,17,54,9.30
2014,12,08,17,55,9.30
2014,12,08,17,56,9.30
2014,12,08,17,57,9.30
2014,12,08,17,58,9.30
2014,12,08,17,59,9.30
2014,12,08,18,00,9.30
2014,12,08,18,01,9.30
2014,12,08,18,02,9.30
2014,12,08,18,03,9.30
2014,12,08,18,04,9.30
2014,12,08,18,05,9.30
2014,12,08,18,06,9.30
2014,12,08,18,07,9.30
2014,12,08,18,08,9.30
2014,12,08,18,09,9.30
2014,12,08,18,10,9.30
2014,12,08,18,11,9.30
2014,12,08,18,12,9.30
2014,12,08,18,13,9.30
2014,12,08,18,14,9.30
2014,12,08,18,15,9.30
2014,12,08,18,16,9.30
2014,12,08,18,17,9.30
2014,12,08,18,18,9.30
2014,12,08,18,19,9.30
2014,12,08,18,20,9.30
2014,12,08,18,21,9.30
2014,12,08,18,22,9.30
2014,12,08,18,23,9.30
2014,12,08,18,24,9.30
2014,12,08,18,25,9.30
2014,12,08,18,26,9.30
2014,12,08,18,27,9.30
2014,12,08,18,28,9.30
2014,12,08,18,29,9.30
2014,12,08,18,30,9.30
2014,12,08,18,31,9.40
2014,12,08,18,32,9.40
2014,12,08,18,33,9.40
2014,12,08,18,34,9.40
2014,12,08,18,35,9.40
2014,12,08,18,36,9.40
2014,12,08,18,37,9.40
2014,12,08,18,38,9.40
2014,12,08,18,39,9.40
2014,12,08,18,40,9.40
2014,12,08,18,41,9.40
2014,12,08,18,42,9.40
2014,12,08,18,43,9.40
2014,12,08,18,44,9.40
2014,12,08,18,45,9.40
2014,12,08,18,46,9.40
2014,12,08,18,47,9.40
2014,12,08,18,48,9.40
2014,12,08,18,49,9.40
2014,12,08,18,50,9.40
2014,12,08,18,51,9.40
2014,12,08,18,52,9.40
2014,12,08,18,53,9.40
2014,12,08,18,54,9.40
2014,12,08,18,55,9.40
2014,12,08,18,56,9.40
2014,12,08,18,57,9.40
2014,12,08,18,58,9.40
2014,12,08,18,59,9.40
2014,12,08,19,00,9.40
2014,12,08,19,01,9.40
2014,12,08,19,02,9.40
2014,12,08,19,03,9.40
2014,12,08,19,04,9.40
2014,12,08,19,05,9.40
2014,12,08,19,06,9.40
2014,12,08,19,07,9.40
2014,12,08,19,08,9.40
2014,12,08,19,09,9.40
2014,12,08,19,10,9.40
2014,12,08,19,11,9.40
2014,12,08,19,12,9.40
2014,12,08,19,13,9.50
2014,12,08,19,14,9.50
2014,12,08,19,15,9.50
2014,12,08,19,16,9.50
2014,12,08,19,17,9.50
2014,12,08,19,18,9.50
2014,12,08,19,19,9.50
2014,12,08,19,20,9.50
2014,12,08,19,21,9.50
2014,12,08,19,22,9.50
2014,12,08,19,23,9.50
2014,12,08,19,24,9.50
2014,12,08,19,25,9.50
2014,12,08,19,26,9.50
2014,12,08,19,27,9.50
2014,12,08,19,28,9.50
2014,12,08,19,29,9.50
2014,12,08,19,30,9.50
2014,12,08,19,31,9.40
2014,12,08,19,32,9.40
2014,12,08,19,33,9.40
2014,12,08,19,34,9.40
2014,12,08,19,35,9.40
2014,12,08,19,36,9.40
2014,12,08,19,37,9.40
2014,12,08,19,38,9.40
2014,12,08,19,39,9.40
2014,12,08,19,40,9.40
2014,12,08,19,41,9.40
2014,12,08,19,42,9.40
2014,12,08,19,43,9.40
2014,12,08,19,44,9.40
2014,12,08,19,45,9.40
2014,12,08,19,46,9.40
2014,12,08,19,47,9.40
2014,12,08,19,48,9.40
2014,12,08,19,49,9.40
2014,12,08,19,50,9.40
2014,12,08,19,51,9.40
2014,12,08,19,52,9.40
2014,12,08,19,53,9.40
2014,12,08,19,54,9.40
2014,12,08,19,55,9.40
2014,12,08,19,56,9.40
2014,12,08,19,57,9.40
2014,12,08,19,58,9.40
2014,12,08,19,59,9.40
2014,12,08,20,00,9.40
2014,12,08,20,01,9.40
2014,12,08,20,02,9.40
2014,12,08,20,03,9.40
2014,12,08,20,04,9.40
2014,12,08,20,05,9.40
2014,12,08,20,06,9.40
2014,12,08,20,07,9.50
2014,12,08,20,08,9.50
2014,12,08,20,09,9.50
2014,12,08,20,10,9.50
2014,12,08,20,11,9.50
2014,12,08,20,12,9.50
2014,12,08,20,13,9.50
2014,12,08,20,14,9.50
2014,12,08,20,15,9.50
2014,12,08,20,16,9.50
2014,12,08,20,17,9.50
2014,12,08,20,18,9.50
2014,12,08,20,19,9.50
2014,12,08,20,20,9.50
2014,12,08,20,21,9.50
2014,12,08,20,22,9.50
2014,12,08,20,23,9.50
2014,12,08,20,24,9.50
2014,12,08,20,25,9.50
2014,12,08,20,26,9.50
2014,12,08,20,27,9.50
2014,12,08,20,28,9.50
2014,12,08,20,29,9.50
2014,12,08,20,30,9.50
2014,12,08,20,31,9.50
2014,12,08,20,32,9.50
2014,12,08,20,33,9.50
2014,12,08,20,34,9.50
2014,12,08,20,35,9.50
2014,12,08,20,36,9.60
2014,12,08,20,37,9.60
2014,12,08,20,38,9.60
2014,12,08,20,39,9.60
2014,12,08,20,40,9.60
2014,12,08,20,41,9.60
2014,12,08,20,42,9.60
2014,12,08,20,43,9.60
2014,12,08,20,44,9.60
2014,12,08,20,45,9.60
2014,12,08,20,46,9.60
2014,12,08,20,47,9.60
2014,12,08,20,48,9.60
2014,12,08,20,49,9.60
2014,12,08,20,50,9.60
2014,12,08,20,51,9.60
2014,12,08,20,52,9.60
2014,12,08,20,53,9.60
2014,12,08,20,54,9.60
2014,12,08,20,55,9.60
2014,12,08,20,56,9.60
2014,12,08,20,57,9.60
2014,12,08,20,58,9.60
2014,12,08,20,59,9.60
2014,12,08,21,00,9.60
2014,12,08,21,01,9.70
2014,12,08,21,02,9.70
2014,12,08,21,03,9.70
2014,12,08,21,04,9.70
2014,12,08,21,05,9.70
2014,12,08,21,06,9.70
2014,12,08,21,07,9.70
2014,12,08,21,08,9.70
2014,12,08,21,09,9.70
2014,12,08,21,10,9.70
2014,12,08,21,11,9.70
2014,12,08,21,12,9.70
2014,12,08,21,13,9.70
2014,12,08,21,14,9.70
2014,12,08,21,15,9.70
2014,12,08,21,16,9.70
2014,12,08,21,17,9.70
2014,12,08,21,18,9.70
2014,12,08,21,19,9.70
2014,12,08,21,20,9.70
2014,12,08,21,21,9.70
2014,12,08,21,22,9.70
2014,12,08,21,23,9.70
2014,12,08,21,24,9.70
2014,12,08,21,25,9.70
2014,12,08,21,26,9.70
2014,12,08,21,27,9.70
2014,12,08,21,28,9.70
2014,12,08,21,29,9.70
2014,12,08,21,30,9.70
2014,12,08,21,31,9.70
2014,12,08,21,32,9.70
2014,12,08,21,33,9.70
2014,12,08,21,34,9.70
2014,12,08,21,35,9.70
2014,12,08,21,36,9.70
2014,12,08,21,37,9.70
2014,12,08,21,38,9.70
2014,12,08,21,39,9.70
2014,12,08,21,40,9.70
2014,12,08,21,41,9.70
2014,12,08,21,42,9.70
2014,12,08,21,43,9.70
2014,12,08,21,44,9.70
2014,12,08,21,45,9.70
2014,12,08,21,46,9.70
2014,12,08,21,47,9.70
2014,12,08,21,48,9.70
2014,12,08,21,49,9.70
2014,12,08,21,50,9.70
2014,12,08,21,51,9.70
2014,12,08,21,52,9.70
2014,12,08,21,53,9.70
2014,12,08,21,54,9.70
2014,12,08,21,55,9.80
2014,12,08,21,56,9.80
2014,12,08,21,57,9.80
2014,12,08,21,58,9.80
2014,12,08,21,59,9.80
2014,12,08,22,00,9.80
2014,12,08,22,01,9.80
2014,12,08,22,02,9.80
2014,12,08,22,03,9.80
2014,12,08,22,04,9.80
2014,12,08,22,05,9.80
2014,12,08,22,06,9.80
2014,12,08,22,07,9.80
2014,12,08,22,08,9.80
2014,12,08,22,09,9.80
2014,12,08,22,10,9.80
2014,12,08,22,11,9.80
2014,12,08,22,12,9.80
2014,12,08,22,13,9.80
2014,12,08,22,14,9.80
2014,12,08,22,15,9.80
2014,12,08,22,16,9.80
2014,12,08,22,17,9.80
2014,12,08,22,18,9.80
2014,12,08,22,19,9.80
2014,12,08,22,20,9.80
2014,12,08,22,21,9.80
2014,12,08,22,22,9.80
2014,12,08,22,23,9.80
2014,12,08,22,24,9.80
2014,12,08,22,25,9.80
2014,12,08,22,26,9.80
2014,12,08,22,27,9.80
2014,12,08,22,28,9.80
2014,12,08,22,29,9.80
2014,12,08,22,30,9.80
2014,12,08,22,31,9.80
2014,12,08,22,32,9.80
2014,12,08,22,33,9.80
2014,12,08,22,34,9.80
2014,12,08,22,35,9.80
2014,12,08,22,36,9.80
2014,12,08,22,37,9.80
2014,12,08,22,38,9.80
2014,12,08,22,39,9.80
2014,12,08,22,40,9.80
2014,12,08,22,41,9.80
2014,12,08,22,42,9.80
2014,12,08,22,43,9.80
2014,12,08,22,44,9.80
2014,12,08,22,45,9.80
2014,12,08,22,46,9.80
2014,12,08,22,47,9.80
2014,12,08,22,48,9.80
2014,12,08,22,49,9.80
2014,12,08,22,50,9.90
2014,12,08,22,51,9.80
2014,12,08,22,52,9.80
2014,12,08,22,53,9.90
2014,12,08,22,54,9.90
2014,12,08,22,55,9.80
2014,12,08,22,56,9.80
2014,12,08,22,57,9.80
2014,12,08,22,58,9.80
2014,12,08,22,59,9.80
2014,12,08,23,00,9.80
2014,12,08,23,01,9.80
2014,12,08,23,02,9.80
2014,12,08,23,03,9.80
2014,12,08,23,04,9.80
2014,12,08,23,05,9.80
2014,12,08,23,06,9.80
2014,12,08,23,07,9.80
2014,12,08,23,08,9.80
2014,12,08,23,09,9.80
2014,12,08,23,10,9.80
2014,12,08,23,11,9.80
2014,12,08,23,12,9.80
2014,12,08,23,13,9.80
2014,12,08,23,14,9.80
2014,12,08,23,15,9.80
2014,12,08,23,16,9.80
2014,12,08,23,17,9.80
2014,12,08,23,18,9.80
2014,12,08,23,19,9.80
2014,12,08,23,20,9.80
2014,12,08,23,21,9.80
2014,12,08,23,22,9.80
2014,12,08,23,23,9.80
2014,12,08,23,24,9.80
2014,12,08,23,25,9.80
2014,12,08,23,26,9.80
2014,12,08,23,27,9.80
2014,12,08,23,28,9.80
2014,12,08,23,29,9.80
2014,12,08,23,30,9.80
2014,12,08,23,31,9.80
2014,12,08,23,32,9.80
2014,12,08,23,33,9.80
2014,12,08,23,34,9.80
2014,12,08,23,35,9.80
2014,12,08,23,36,9.80
2014,12,08,23,37,9.80
2014,12,08,23,38,9.80
2014,12,08,23,39,9.80
2014,12,08,23,40,9.80
2014,12,08,23,41,9.80
2014,12,08,23,42,9.80
2014,12,08,23,43,9.80
2014,12,08,23,44,9.80
2014,12,08,23,45,9.80
2014,12,08,23,46,9.80
2014,12,08,23,47,9.80
2014,12,08,23,48,9.80
2014,12,08,23,49,9.80
2014,12,08,23,50,9.80
2014,12,08,23,51,9.80
2014,12,08,23,52,9.80
2014,12,08,23,53,9.80
2014,12,08,23,54,9.80
2014,12,08,23,55,9.80
2014,12,08,23,56,9.80
2014,12,08,23,57,9.80
2014,12,08,23,58,9.80
2014,12,08,23,59,9.80
